H1 CPF 2 NER 2026 3 5 9 064 01 glonass138 H2 1805301 9138 43508 2026 3 5 0 0 0 2026 3 8 23 45 0 900 1 1 0 0 0 1 H9 10 0 61104 0.00000 0 10620095.469 -7903816.620 21824679.034 10 0 61104 900.00000 0 10433924.211 -5163004.349 22715821.797 10 0 61104 1800.00000 0 10456265.117 -2333442.528 23166706.276 10 0 61104 2700.00000 0 10693784.485 514288.916 23168542.063 10 0 61104 3600.00000 0 11140587.398 3309271.678 22721219.764 10 0 61104 4500.00000 0 11778437.755 5982949.467 21833318.802 10 0 61104 5400.00000 0 12577512.852 8471730.827 20521949.726 10 0 61104 6300.00000 0 13497661.867 10719387.618 18812433.294 10 0 61104 7200.00000 0 14490116.606 12679150.507 16737821.515 10 0 61104 8100.00000 0 15499583.837 14315415.010 14338268.738 10 0 61104 9000.00000 0 16466632.321 15604987.414 11660263.728 10 0 61104 9900.00000 0 17330274.841 16537818.714 8755736.521 10 0 61104 10800.00000 0 18030636.865 17117195.899 5681056.504 10 0 61104 11700.00000 0 18511599.258 17359382.462 2495940.577 10 0 61104 12600.00000 0 18723302.957 17292723.228 -737707.553 10 0 61104 13500.00000 0 18624408.925 16956251.233 -3957004.196 10 0 61104 14400.00000 0 18184016.594 16397855.624 -7099314.663 10 0 61104 15300.00000 0 17383158.238 15672088.386 -10103479.627 10 0 61104 16200.00000 0 16215804.540 14837703.180 -12911014.099 10 0 61104 17100.00000 0 14689337.300 13955031.148 -15467254.652 10 0 61104 18000.00000 0 12824467.879 13083305.523 -17722431.631 10 0 61104 18900.00000 0 10654603.537 12278049.053 -19632644.679 10 0 61104 19800.00000 0 8224687.249 11588635.431 -21160722.089 10 0 61104 20700.00000 0 5589558.917 11056128.421 -22276946.902 10 0 61104 21600.00000 0 2811906.091 10711490.295 -22959635.603 10 0 61104 22500.00000 0 -40110.510 10574235.373 -23195558.299 10 0 61104 23400.00000 0 -2895457.747 10651585.360 -22980192.519 10 0 61104 24300.00000 0 -5682948.859 10938161.793 -22317806.104 10 0 61104 25200.00000 0 -8333967.325 11416228.109 -21221368.020 10 0 61104 26100.00000 0 -10785082.699 12056470.524 -19712289.257 10 0 61104 27000.00000 0 -12980450.130 12819284.186 -17819999.278 10 0 61104 27900.00000 0 -14873894.383 13656509.733 -15581366.591 10 0 61104 28800.00000 0 -16430592.595 14513546.424 -13039975.069 10 0 61104 29700.00000 0 -17628286.832 15331752.163 -10245270.427 10 0 61104 30600.00000 0 -18457977.368 16051028.747 -7251593.750 10 0 61104 31500.00000 0 -18924069.354 16612482.863 -4117121.256 10 0 61104 32400.00000 0 -19043968.551 16961050.329 -902731.236 10 0 61104 33300.00000 0 -18847144.846 17047972.748 2329179.491 10 0 61104 34200.00000 0 -18373704.557 16833022.043 5515906.304 10 0 61104 35100.00000 0 -17672532.952 16286379.165 8595651.044 10 0 61104 36000.00000 0 -16799086.239 15390087.882 11508716.272 10 0 61104 36900.00000 0 -15812926.640 14139022.502 14198656.525 10 0 61104 37800.00000 0 -14775104.594 12541328.761 16613364.742 10 0 61104 38700.00000 0 -13745498.077 10618319.076 18706073.447 10 0 61104 39600.00000 0 -12780220.497 8403825.996 20436252.138 10 0 61104 40500.00000 0 -11929205.360 5943040.046 21770384.427 10 0 61104 41400.00000 0 -11234068.310 3290879.266 22682610.866 10 0 61104 42300.00000 0 -10726335.445 509956.974 23155225.790 10 0 61104 43200.00000 0 -10426111.517 -2331769.347 23179019.218 10 0 61104 44100.00000 0 -10341243.424 -5163572.132 22753457.503 10 0 61104 45000.00000 0 -10467013.935 -7914645.613 21886699.168 10 0 61104 45900.00000 0 -10786378.727 -10516805.421 20595445.236 10 0 61104 46800.00000 0 -11270737.311 -12907085.265 18904626.166 10 0 61104 47700.00000 0 -11881206.284 -15030123.899 16846930.449 10 0 61104 48600.00000 0 -12570342.296 -16840243.926 14462182.783 10 0 61104 49500.00000 0 -13284243.185 -18303136.293 11796582.668 10 0 61104 50400.00000 0 -13964939.491 -19397080.320 8901817.038 10 0 61104 51300.00000 0 -14552976.018 -20113648.196 5834063.254 10 0 61104 52200.00000 0 -14990074.526 -20457864.205 2652901.207 10 0 61104 53100.00000 0 -15221764.727 -20447811.756 -579844.525 10 0 61104 54000.00000 0 -15199871.563 -20113704.584 -3801309.806 10 0 61104 54900.00000 0 -14884752.423 -19496461.214 -6948819.399 10 0 61104 55800.00000 0 -14247188.218 -18645843.019 -9961114.052 10 0 61104 56700.00000 0 -13269846.727 -17618234.850 -12779551.357 10 0 61104 57600.00000 0 -11948254.707 -16474162.563 -15349256.061 10 0 61104 58500.00000 0 -10291236.080 -15275653.014 -17620196.407 10 0 61104 59400.00000 0 -8320796.261 -14083548.784 -19548164.838 10 0 61104 60300.00000 0 -6071456.167 -12954891.683 -21095643.399 10 0 61104 61200.00000 0 -3589062.883 -11940486.029 -22232536.665 10 0 61104 62100.00000 0 -929126.017 -11082744.769 -22936757.907 10 0 61104 63000.00000 0 1845251.215 -10413909.313 -23194657.231 10 0 61104 63900.00000 0 4665760.113 -9954717.873 -23001283.653 10 0 61104 64800.00000 0 7461494.490 -9713577.890 -22360476.431 10 0 61104 65700.00000 0 10161670.106 -9686276.697 -21284784.308 10 0 61104 66600.00000 0 12698342.499 -9856241.738 -19795214.640 10 0 61104 67500.00000 0 15009010.448 -10195338.376 -17920817.733 10 0 61104 68400.00000 0 17038997.150 -10665170.677 -15698114.776 10 0 61104 69300.00000 0 18743510.625 -11218829.327 -13170380.896 10 0 61104 70200.00000 0 20089298.384 -11803012.052 -10386797.560 10 0 61104 71100.00000 0 21055828.475 -12360426.250 -7401491.178 10 0 61104 72000.00000 0 21635948.941 -12832371.754 -4272476.929 10 0 61104 72900.00000 0 21835999.622 -13161394.157 -1060528.729 10 0 61104 73800.00000 0 21675373.240 -13293896.310 2172002.408 10 0 61104 74700.00000 0 21185545.738 -13182597.536 5362398.322 10 0 61104 75600.00000 0 20408618.013 -12788736.671 8448788.365 10 0 61104 76500.00000 0 19395431.476 -12083926.024 11371345.177 10 0 61104 77400.00000 0 18203337.466 -11051578.115 14073438.578 10 0 61104 78300.00000 0 16893714.674 -9687845.054 16502725.645 10 0 61104 79200.00000 0 15529338.904 -8002030.824 18612156.519 10 0 61104 80100.00000 0 14171715.226 -6016458.687 20360877.241 10 0 61104 81000.00000 0 12878483.785 -3765798.437 21715013.111 10 0 61104 81900.00000 0 11701007.120 -1295880.498 22648318.326 10 0 61104 82800.00000 0 10682239.084 1337955.057 23142680.156 10 0 61104 83700.00000 0 9854963.646 4072907.491 23188468.535 10 0 61104 84600.00000 0 9240476.470 6841078.977 22784724.668 10 0 61104 85500.00000 0 8847763.912 9572056.359 21939184.928 10 0 61105 0.00000 0 8673213.542 12195605.411 20668139.366 10 0 61105 900.00000 0 8700868.318 14644368.617 18996126.053 10 0 61105 1800.00000 0 8903214.272 16856452.128 16955467.938 10 0 61105 2700.00000 0 9242468.856 18777799.830 14585657.756 10 0 61105 3600.00000 0 9672316.663 20364252.631 11932603.254 10 0 61105 4500.00000 0 10140019.928 21583208.603 9047745.636 10 0 61105 5400.00000 0 10588815.196 22414814.199 5987067.522 10 0 61105 6300.00000 0 10960495.158 22852636.323 2810009.021 10 0 61105 7200.00000 0 11198066.239 22903786.584 -421687.184 10 0 61105 8100.00000 0 11248368.928 22588492.119 -3645179.185 10 0 61105 9000.00000 0 11064548.929 21939130.741 -6797753.730 10 0 61105 9900.00000 0 10608273.200 20998770.953 -9818053.933 10 0 61105 10800.00000 0 9851595.537 19819278.531 -12647282.002 10 0 61105 11700.00000 0 8778391.137 18459069.861 -15230352.564 10 0 61105 12600.00000 0 7385297.790 16980607.352 -17516973.184 10 0 61105 13500.00000 0 5682122.402 15447743.160 -19462630.239 10 0 61105 14400.00000 0 3691694.228 13923023.819 -21029460.409 10 0 61105 15300.00000 0 1449169.784 12465069.876 -22186990.475 10 0 61105 16200.00000 0 -999182.419 11126141.173 -22912730.961 10 0 61105 17100.00000 0 -3597667.170 9949990.277 -23192612.215 10 0 61105 18000.00000 0 -6283247.915 8970094.116 -23021254.740 10 0 61105 18900.00000 0 -8987945.467 8208337.614 -22402068.914 10 0 61105 19800.00000 0 -11641450.307 7674203.783 -21347182.614 10 0 61105 20700.00000 0 -14173839.732 7364503.299 -19877198.561 10 0 61105 21600.00000 0 -16518286.912 7263653.635 -18020786.540 10 0 61105 22500.00000 0 -18613649.309 7344494.679 -15814118.757 10 0 61105 23400.00000 0 -20406828.971 7569605.149 -13300159.674 10 0 61105 24300.00000 0 -21854806.919 7893062.982 -10527824.447 10 0 61105 25200.00000 0 -22926267.544 8262574.301 -7551022.638 10 0 61105 26100.00000 0 -23602746.153 8621880.076 -4427606.189 10 0 61105 27000.00000 0 -23879252.851 8913338.003 -1218242.433 10 0 61105 27900.00000 0 -23764348.027 9080569.940 2014765.624 10 0 61105 28800.00000 0 -23279667.570 9071062.625 5208688.500 10 0 61105 29700.00000 0 -22458919.102 8838611.607 8301585.289 10 0 61105 30600.00000 0 -21346392.474 8345505.108 11233500.966 10 0 61105 31500.00000 0 -19995047.908 7564355.666 13947622.889 10 0 61105 32400.00000 0 -18464262.562 6479502.330 16391374.490 10 0 61105 33300.00000 0 -16817330.179 5087924.248 18517425.647 10 0 61105 34200.00000 0 -15118818.389 3399626.856 20284600.914 10 0 61105 35100.00000 0 -13431893.726 1437483.862 21658669.018 10 0 61105 36000.00000 0 -11815725.439 -763459.407 22612999.263 10 0 61105 36900.00000 0 -10323075.582 -3157193.468 23129072.984 10 0 61105 37800.00000 0 -8998174.984 -5688414.200 23196840.812 10 0 61105 38700.00000 0 -7874972.737 -8294586.709 22814919.208 10 0 61105 39600.00000 0 -6975831.477 -10908319.516 21990622.419 10 0 61105 40500.00000 0 -6310722.297 -13459952.211 20739828.898 10 0 61105 41400.00000 0 -5876952.597 -15880250.673 19086684.022 10 0 61105 42300.00000 0 -5659438.181 -18103099.101 17063143.872 10 0 61105 43200.00000 0 -5631508.342 -20068077.851 14708367.711 10 0 61105 44100.00000 0 -5756210.416 -21722820.252 12067969.687 10 0 61105 45000.00000 0 -5988059.306 -23025050.208 9193143.144 10 0 61105 45900.00000 0 -6275158.513 -23944215.229 6139673.585 10 0 61105 46800.00000 0 -6561603.287 -24462646.066 2966858.791 10 0 61105 47700.00000 0 -6790064.134 -24576193.643 -263643.146 10 0 61105 48600.00000 0 -6904440.894 -24294315.883 -3489015.354 10 0 61105 49500.00000 0 -6852474.133 -23639610.133 -6646509.454 10 0 61105 50400.00000 0 -6588202.100 -22646810.471 -9674673.884 10 0 61105 51300.00000 0 -6074157.738 -21361291.920 -12514558.433 10 0 61105 52200.00000 0 -5283211.164 -19837144.642 -15110870.556 10 0 61105 53100.00000 0 -4199978.023 -18134899.546 -17413059.957 10 0 61105 54000.00000 0 -2821732.585 -16319001.535 -19376309.550 10 0 61105 54900.00000 0 -1158785.548 -14455137.250 -20962412.947 10 0 61105 55800.00000 0 765690.694 -12607530.208 -22140521.013 10 0 61105 56700.00000 0 2916383.132 -10836317.342 -22887742.934 10 0 61105 57600.00000 0 5247076.190 -9195117.217 -23189590.198 10 0 61105 58500.00000 0 7702355.571 -7728891.809 -23040255.181 10 0 61105 59400.00000 0 10219707.099 -6472191.044 -22442719.275 10 0 61105 60300.00000 0 12731923.210 -5447852.863 -21408688.930 10 0 61105 61200.00000 0 15169716.829 -4666212.236 -19958361.240 10 0 61105 62100.00000 0 17464433.734 -4124850.913 -18120024.071 10 0 61105 63000.00000 0 19550750.456 -3808896.862 -15929498.829 10 0 61105 63900.00000 0 21369245.346 -3691859.184 -13429437.087 10 0 61105 64800.00000 0 22868735.860 -3736961.703 -10668485.043 10 0 61105 65700.00000 0 24008284.952 -3898917.522 -7700332.395 10 0 61105 66600.00000 0 24758793.383 -4126068.312 -4582664.498 10 0 61105 67500.00000 0 25104112.203 -4362796.852 -1376038.529 10 0 61105 68400.00000 0 25041629.855 -4552110.032 1857294.201 10 0 61105 69300.00000 0 24582310.367 -4638282.493 5054596.542 10 0 61105 70200.00000 0 23750182.183 -4569448.804 8153860.815 10 0 61105 71100.00000 0 22581300.059 -4300034.464 11095007.538 10 0 61105 72000.00000 0 21122224.363 -3792923.047 13821044.437 10 0 61105 72900.00000 0 19428082.116 -3021268.070 16279163.715 10 0 61105 73800.00000 0 17560291.129 -1969873.210 18421756.950 10 0 61105 74700.00000 0 15584042.397 -636082.602 20207328.723 10 0 61105 75600.00000 0 13565645.472 969856.604 21601292.262 10 0 61105 76500.00000 0 11569846.868 2824975.434 22576632.622 10 0 61105 77400.00000 0 9657232.379 4894301.504 23114425.430 10 0 61105 78300.00000 0 7881820.444 7132086.108 23204201.818 10 0 61105 79200.00000 0 6288945.685 9483490.481 22844152.877 10 0 61105 80100.00000 0 4913519.728 11886662.794 22041169.679 10 0 61105 81000.00000 0 3778740.901 14275121.265 20810717.751 10 0 61105 81900.00000 0 2895305.951 16580345.956 19176547.718 10 0 61105 82800.00000 0 2261156.284 18734472.810 17170246.706 10 0 61105 83700.00000 0 1861769.180 20672978.838 14830638.041 10 0 61105 84600.00000 0 1670981.750 22337247.206 12203039.578 10 0 61105 85500.00000 0 1652313.176 23676905.342 9338393.927 10 0 61106 0.00000 0 1760729.691 24651838.043 6292286.751 10 0 61106 900.00000 0 1944777.988 25233791.223 3123869.871 10 0 61106 1800.00000 0 2148996.609 25407496.984 -105286.022 10 0 61106 2700.00000 0 2316503.135 25171273.620 -3332392.101 10 0 61106 3600.00000 0 2391646.762 24537073.025 -6494667.714 10 0 61106 4500.00000 0 2322612.934 23529973.336 -9530569.240 10 0 61106 5400.00000 0 2063868.417 22187137.492 -12380996.374 10 0 61106 6300.00000 0 1578341.749 20556281.277 -14990451.376 10 0 61106 7200.00000 0 839245.259 18693715.258 -17308127.714 10 0 61106 8100.00000 0 -168539.996 16662043.230 -19288906.130 10 0 61106 9000.00000 0 -1447576.339 14527614.190 -20894238.125 10 0 61106 9900.00000 0 -2987517.421 12357835.295 -22092899.325 10 0 61106 10800.00000 0 -4765307.974 10218458.842 -22861597.961 10 0 61106 11700.00000 0 -6745927.960 8170957.168 -23185426.763 10 0 61106 12600.00000 0 -8883650.570 6270095.348 -23058149.759 10 0 61106 13500.00000 0 -11123761.911 4561802.914 -22482318.788 10 0 61106 14400.00000 0 -13404670.751 3081432.904 -21469217.915 10 0 61106 15300.00000 0 -15660320.295 1852480.074 -20038637.258 10 0 61106 16200.00000 0 -17822801.308 885810.521 -18218481.038 10 0 61106 17100.00000 0 -19825057.508 179433.401 -16044217.815 10 0 61106 18000.00000 0 -21603570.218 -281177.504 -13558183.975 10 0 61106 18900.00000 0 -23100910.249 -522227.696 -10808754.295 10 0 61106 19800.00000 0 -24268050.548 -580249.233 -7849396.072 10 0 61106 20700.00000 0 -25066343.194 -500310.011 -4737625.519 10 0 61106 21600.00000 0 -25469078.563 -333862.063 -1533887.118 10 0 61106 22500.00000 0 -25462561.996 -136320.961 1699622.001 10 0 61106 23400.00000 0 -25046663.659 35520.538 4900159.460 10 0 61106 24300.00000 0 -24234819.387 126134.656 8005653.209 10 0 61106 25200.00000 0 -23053483.298 83844.609 10955901.631 10 0 61106 26100.00000 0 -21541055.811 -136754.896 13693735.065 10 0 61106 27000.00000 0 -19746332.465 -572644.797 16166116.579 10 0 61106 27900.00000 0 -17726538.636 -1250587.161 18325161.348 10 0 61106 28800.00000 0 -15545032.196 -2185764.575 20129055.625 10 0 61106 29700.00000 0 -13268769.600 -3380910.830 21542858.462 10 0 61106 30600.00000 0 -10965640.249 -4825969.883 22539171.640 10 0 61106 31500.00000 0 -8701779.212 -6498298.159 23098665.671 10 0 61106 32400.00000 0 -6538968.933 -8363402.897 23210452.414 10 0 61106 33300.00000 0 -4532236.746 -10376187.157 22872297.461 10 0 61106 34200.00000 0 -2727746.908 -12482651.199 22090668.251 10 0 61106 35100.00000 0 -1161073.764 -14621981.071 20880616.615 10 0 61106 36000.00000 0 144073.001 -16728939.114 19265497.360 10 0 61106 36900.00000 0 1176618.504 -18736458.239 17276527.317 10 0 61106 37800.00000 0 1938356.489 -20578333.045 14952192.254 10 0 61106 38700.00000 0 2443637.290 -22191896.268 12337511.857 10 0 61106 39600.00000 0 2718523.058 -23520569.041 9483175.883 10 0 61106 40500.00000 0 2799445.774 -24516178.178 6444567.289 10 0 61106 41400.00000 0 2731424.590 -25140942.806 3280690.575 10 0 61106 42300.00000 0 2565917.876 -25369046.159 53025.930 10 0 61106 43200.00000 0 2358401.103 -25187725.382 -3175668.502 10 0 61106 44100.00000 0 2165773.659 -24597832.394 -6342582.475 10 0 61106 45000.00000 0 2043705.311 -23613841.103 -9386083.005 10 0 61106 45900.00000 0 2044035.827 -22263299.728 -12246922.369 10 0 61106 46800.00000 0 2212339.264 -20585750.614 -14869400.258 10 0 61106 47700.00000 0 2585757.453 -18631162.565 -17202456.411 10 0 61106 48600.00000 0 3191195.819 -16457941.493 -19200671.704 10 0 61106 49500.00000 0 4043959.176 -14130602.982 -20825157.567 10 0 61106 50400.00000 0 5146886.359 -11717204.645 -22044316.055 10 0 61106 51300.00000 0 6490021.241 -9286646.131 -22834455.706 10 0 61106 52200.00000 0 8050834.930 -6905949.919 -23180251.298 10 0 61106 53100.00000 0 9794990.438 -4637636.647 -23075038.862 10 0 61106 54000.00000 0 11677618.256 -2537304.390 -22520940.595 10 0 61106 54900.00000 0 13645049.652 -651512.366 -21528817.679 10 0 61106 55800.00000 0 15636935.220 983943.360 -20118052.366 10 0 61106 56700.00000 0 17588660.039 2345291.447 -18316163.966 10 0 61106 57600.00000 0 19433954.306 3421532.888 -16158266.550 10 0 61106 58500.00000 0 21107590.127 4214645.149 -13686379.293 10 0 61106 59400.00000 0 22548051.511 4739236.225 -10948603.155 10 0 61106 60300.00000 0 23700065.808 5021665.130 -7998180.257 10 0 61106 61200.00000 0 24516890.647 5098667.718 -4892454.595 10 0 61106 62100.00000 0 24962260.795 5015547.487 -1691754.649 10 0 61106 63000.00000 0 25011913.691 4824009.171 1541780.068 10 0 61106 63900.00000 0 24654630.195 4579727.768 4745405.392 10 0 61106 64800.00000 0 23892747.473 4339756.537 7856988.215 10 0 61106 65700.00000 0 22742123.093 4159884.009 10816207.892 10 0 61106 66600.00000 0 21231552.357 4092051.853 13565720.166 10 0 61106 67500.00000 0 19401663.612 4181942.583 16052261.425 10 0 61106 68400.00000 0 17303337.857 4466838.749 18227672.525 10 0 61106 69300.00000 0 14995718.545 4973843.576 20049823.079 10 0 61106 70200.00000 0 12543894.106 5718537.879 21483419.292 10 0 61106 71100.00000 0 10016349.001 6704129.805 22500680.607 10 0 61106 72000.00000 0 7482288.335 7921133.486 23081872.979 10 0 61106 72900.00000 0 5008946.039 9347590.850 23215689.131 10 0 61106 73800.00000 0 2658987.092 10949828.410 22899468.873 10 0 61106 74700.00000 0 488110.390 12683718.804 22139255.267 10 0 61106 75600.00000 0 -1457049.438 14496395.988 20949685.250 10 0 61106 76500.00000 0 -3140635.106 16328354.122 19353716.162 10 0 61106 77400.00000 0 -4538824.181 18115844.072 17382192.485 10 0 61106 78300.00000 0 -5640579.215 19793468.731 15073260.026 10 0 61106 79200.00000 0 -6447859.570 21296869.667 12471637.611 10 0 61106 80100.00000 0 -6975286.232 22565393.138 9627759.260 10 0 61106 81000.00000 0 -7249273.790 23544623.842 6596802.464 10 0 61106 81900.00000 0 -7306666.137 24188679.654 3437620.745 10 0 61106 82800.00000 0 -7192933.529 24462170.133 211600.922 10 0 61106 83700.00000 0 -6960007.410 24341735.288 -3018532.631 10 0 61106 84600.00000 0 -6663845.030 23817098.562 -6189943.052 10 0 61106 85500.00000 0 -6361827.686 22891588.317 -9240910.788 10 0 61107 0.00000 0 -6110103.747 21582104.795 -12112043.001 10 0 61107 900.00000 0 -5960990.016 19918532.077 -14747439.561 10 0 61107 1800.00000 0 -5960543.090 17942620.830 -17095788.119 10 0 61107 2700.00000 0 -6146404.320 15706386.001 -19111371.228 10 0 61107 3600.00000 0 -6546011.121 13270088.080 -20754961.442 10 0 61107 4500.00000 0 -7175251.191 10699881.960 -21994588.112 10 0 61107 5400.00000 0 -8037617.387 8065232.003 -22806160.613 10 0 61107 6300.00000 0 -9123899.657 5436201.493 -23173935.968 10 0 61107 7200.00000 0 -10412427.553 2880729.759 -23090822.055 10 0 61107 8100.00000 0 -11869853.491 462010.407 -22558510.887 10 0 61107 9000.00000 0 -13452444.056 -1763920.383 -21587439.823 10 0 61107 9900.00000 0 -15107825.185 -3750285.629 -20196581.887 10 0 61107 10800.00000 0 -16777107.963 -5461272.762 -18413069.712 10 0 61107 11700.00000 0 -18397305.726 -6873272.505 -16271660.771 10 0 61107 12600.00000 0 -19903940.926 -7975601.250 -13814054.617 10 0 61107 13500.00000 0 -21233732.228 -8770678.610 -11088075.790 10 0 61107 14400.00000 0 -22327248.999 -9273654.708 -8146738.509 10 0 61107 15300.00000 0 -23131421.677 -9511504.821 -5047211.771 10 0 61107 16200.00000 0 -23601802.725 -9521631.444 -1849705.273 10 0 61107 17100.00000 0 -23704483.357 -9350034.314 1383701.843 10 0 61107 18000.00000 0 -23417585.812 -9049127.048 4590266.327 10 0 61107 18900.00000 0 -22732268.889 -8675293.617 7707796.647 10 0 61107 19800.00000 0 -21653204.860 -8286288.562 10675855.666 10 0 61107 20700.00000 0 -20198508.116 -7938591.106 13436926.930 10 0 61107 21600.00000 0 -18399118.722 -7684824.863 15937522.346 10 0 61107 22500.00000 0 -16297666.659 -7571351.835 18129210.392 10 0 61107 23400.00000 0 -13946863.979 -7636141.745 19969545.670 10 0 61107 24300.00000 0 -11407491.411 -7907006.064 21422882.777 10 0 61107 25200.00000 0 -8746062.428 -8400270.775 22461059.667 10 0 61107 26100.00000 0 -6032260.897 -9119943.587 23063938.168 10 0 61107 27000.00000 0 -3336257.452 -10057410.880 23219791.908 10 0 61107 27900.00000 0 -726014.567 -11191677.712 22925534.584 10 0 61107 28800.00000 0 1735309.221 -12490141.880 22186784.231 10 0 61107 29700.00000 0 3991749.628 -13909870.908 21017761.952 10 0 61107 30600.00000 0 5996623.423 -15399330.025 19441026.426 10 0 61107 31500.00000 0 7714225.909 -16900490.307 17487048.337 10 0 61107 32400.00000 0 9121069.185 -18351230.110 15193631.831 10 0 61107 33300.00000 0 10206610.007 -19687930.307 12605192.925 10 0 61107 34200.00000 0 10973437.073 -20848155.215 9771907.683 10 0 61107 35100.00000 0 11436910.023 -21773306.944 6748745.691 10 0 61107 36000.00000 0 11624265.355 -22411141.379 3594406.846 10 0 61107 36900.00000 0 11573226.977 -22718039.268 370181.819 10 0 61107 37800.00000 0 11330180.163 -22660935.695 -2861241.632 10 0 61107 38700.00000 0 10947986.403 -22218825.310 -6037002.885 10 0 61107 39600.00000 0 10483532.162 -21383778.350 -9095298.612 10 0 61107 40500.00000 0 9995116.036 -20161423.170 -11976594.054 10 0 61107 41400.00000 0 9539785.942 -18570873.542 -14624790.787 10 0 61107 42300.00000 0 9170740.154 -16644102.657 -16988327.260 10 0 61107 43200.00000 0 8934903.315 -14424789.239 -19021189.833 10 0 61107 44100.00000 0 8870781.039 -11966683.618 -20683814.001 10 0 61107 45000.00000 0 9006684.734 -9331561.947 -21943857.860 10 0 61107 45900.00000 0 9359402.387 -6586854.025 -22776832.664 10 0 61107 46800.00000 0 9933371.952 -3803043.840 -23166578.283 10 0 61107 47700.00000 0 10720392.548 -1050951.348 -23105574.601 10 0 61107 48600.00000 0 11699885.802 1600991.299 -22595083.179 10 0 61107 49500.00000 0 12839696.314 4089355.850 -21645116.878 10 0 61107 50400.00000 0 14097397.474 6358117.902 -20274238.456 10 0 61107 51300.00000 0 15422047.480 8360741.512 -18509192.491 10 0 61107 52200.00000 0 16756321.487 10061862.723 -16384378.128 10 0 61107 53100.00000 0 18038929.916 11438503.117 -13941173.266 10 0 61107 54000.00000 0 19207220.990 12480764.399 -11227123.649 10 0 61107 54900.00000 0 20199857.792 13191976.824 -8295012.931 10 0 61107 55800.00000 0 20959457.064 13588297.176 -5201832.180 10 0 61107 56700.00000 0 21435078.641 13697775.195 -2007669.183 10 0 61107 57600.00000 0 21584460.794 13558929.521 1225460.516 10 0 61107 58500.00000 0 21375907.550 13218894.774 4434817.811 10 0 61107 59400.00000 0 20789748.780 12731219.163 7558155.870 10 0 61107 60300.00000 0 19819311.896 12153406.479 10534923.993 10 0 61107 61200.00000 0 18471364.484 11544306.694 13307436.197 10 0 61107 62100.00000 0 16766009.401 10961465.443 15821982.274 10 0 61107 63000.00000 0 14736036.558 10458543.943 18029860.359 10 0 61107 63900.00000 0 12425758.177 10082917.691 19888311.754 10 0 61107 64800.00000 0 9889375.492 9873554.484 21361340.823 10 0 61107 65700.00000 0 7188944.072 9859260.451 22420405.064 10 0 61107 66600.00000 0 4392021.226 10057367.411 23044962.852 10 0 61107 67500.00000 0 1569091.917 10472916.464 23222869.010 10 0 61107 68400.00000 0 -1209121.554 11098372.226 22950610.994 10 0 61107 69300.00000 0 -3874355.950 11913880.182 22233381.229 10 0 61107 70200.00000 0 -6363399.272 12888057.258 21084983.937 10 0 61107 71100.00000 0 -8620472.462 13979283.560 19527577.608 10 0 61107 72000.00000 0 -10599302.793 15137442.463 17591257.169 10 0 61107 72900.00000 0 -12264803.528 16306037.322 15313482.759 10 0 61107 73800.00000 0 -13594290.454 17424597.144 12738364.932 10 0 61107 74700.00000 0 -14578184.723 18431271.002 9915818.933 10 0 61107 75600.00000 0 -15220172.734 19265502.542 6900603.445 10 0 61107 76500.00000 0 -15536816.322 19870672.005 3751261.691 10 0 61107 77400.00000 0 -15556629.593 20196593.909 528985.143 10 0 61107 78300.00000 0 -15318661.363 20201764.154 -2703578.065 10 0 61107 79200.00000 0 -14870643.172 19855260.441 -5883546.466 10 0 61107 80100.00000 0 -14266781.544 19138214.259 -8949035.749 10 0 61107 81000.00000 0 -13565288.433 18044790.739 -11840371.579 10 0 61107 81900.00000 0 -12825755.137 16582633.426 -14501260.109 10 0 61107 82800.00000 0 -12106481.733 14772753.790 -16879892.383 10 0 61107 83700.00000 0 -11461875.972 12648868.913 -18929960.281 10 0 61107 84600.00000 0 -10940032.541 10256214.178 -20611563.598 10 0 61107 85500.00000 0 -10580595.809 7649880.132 -21891990.176 99